TimeCST,TemperatureF,Dew PointF,Humidity,Sea Level PressureIn,VisibilityMPH,Wind Direction,Wind SpeedMPH,Gust SpeedMPH,PrecipitationIn,Events,Conditions,WindDirDegrees,DateUTC
12:53 AM,39.9,36.0,86,30.04,10.0,Calm,Calm,-,N/A,,Clear,0,2007-12-31 06:53:00
1:53 AM,37.0,34.0,89,30.06,7.0,Calm,Calm,-,N/A,,Clear,0,2007-12-31 07:53:00
2:53 AM,39.0,35.1,86,30.06,7.0,Calm,Calm,-,N/A,,Clear,0,2007-12-31 08:53:00
3:53 AM,39.0,35.1,86,30.06,9.0,Calm,Calm,-,N/A,,Clear,0,2007-12-31 09:53:00
4:53 AM,36.0,34.0,93,30.06,7.0,Calm,Calm,-,N/A,,Clear,0,2007-12-31 10:53:00
5:53 AM,36.0,33.1,89,30.07,8.0,SE,3.5,-,N/A,,Clear,130,2007-12-31 11:53:00
6:53 AM,37.0,34.0,89,30.06,7.0,Calm,Calm,-,N/A,,Clear,0,2007-12-31 12:53:00
7:53 AM,37.9,35.1,89,30.08,4.0,SE,4.6,-,N/A,,Clear,140,2007-12-31 13:53:00
8:53 AM,46.0,42.1,86,30.09,7.0,Calm,Calm,-,N/A,,Clear,0,2007-12-31 14:53:00
9:53 AM,55.0,45.0,69,30.09,10.0,SE,5.8,-,N/A,,Clear,140,2007-12-31 15:53:00
10:53 AM,64.0,41.0,43,30.08,8.0,SSW,11.5,-,N/A,,Clear,200,2007-12-31 16:53:00
11:53 AM,66.9,41.0,39,30.05,10.0,South,10.4,-,N/A,,Clear,190,2007-12-31 17:53:00
12:53 PM,69.1,42.1,38,30.01,10.0,South,8.1,-,N/A,,Clear,190,2007-12-31 18:53:00
1:53 PM,70.0,39.9,33,30.01,8.0,SSW,15.0,-,N/A,,Clear,200,2007-12-31 19:53:00
2:53 PM,70.0,37.9,31,30.01,9.0,SSW,12.7,-,N/A,,Clear,210,2007-12-31 20:53:00
3:53 PM,69.1,39.9,35,30.03,8.0,SW,10.4,-,N/A,,Clear,230,2007-12-31 21:53:00
4:53 PM,64.9,43.0,45,30.05,6.0,SSW,5.8,-,N/A,,Haze,210,2007-12-31 22:53:00
5:53 PM,59.0,44.1,58,30.08,8.0,Calm,Calm,-,N/A,,Clear,0,2007-12-31 23:53:00
6:53 PM,55.9,44.1,64,30.11,6.0,NW,15.0,18.4,N/A,,Haze,310,2008-01-01 00:53:00
7:53 PM,57.9,32.0,37,30.18,10.0,NW,13.8,24.2,N/A,,Clear,320,2008-01-01 01:53:00
8:53 PM,55.0,28.9,37,30.23,10.0,NNW,11.5,-,N/A,,Clear,330,2008-01-01 02:53:00
9:53 PM,53.1,25.0,34,30.26,10.0,NNW,11.5,-,N/A,,Clear,330,2008-01-01 03:53:00
10:53 PM,50.0,25.0,38,30.31,10.0,NNW,10.4,-,N/A,,Clear,340,2008-01-01 04:53:00
11:53 PM,50.0,21.9,33,30.35,10.0,NNW,11.5,-,N/A,,Clear,340,2008-01-01 05:53:00